ISS DEB (44305 NORAD) Tracking and Keplerian Element Data

This shows tracking and keplerian element data for the satellite.

Feedback or suggestion? Click here.




ElementValue
Catalog44305
NameISS DEB
Epoch Orbit786
Epoch Day200.40352142
Epoch Year2019
RAAN200.9206
Inclination51.6371
Eccentricity0.0004504
Argument of Perigee197.4555
Mean Anonmoly162.6281
Mean Motion15.52898969
Decay Rate6.389E-05
L11 44305U 98067QC 19200.40352142 .00006389 00000-0 10829-3 0 9998
L22 44305 51.6371 200.9206 0004504 197.4555 162.6281 15.52898969 7868

Live tracking and technical data element details for ISS DEB (NORAD 44305). ISS DEB can be tracked NOW for your location showing map with azimuth and elevation plus other details from your city location.

Track the satellite on the map from your city or location and see movement details for azimuth, elevation, latitude, longitude, range, height, and movement on the map or in text.







IsCatalogInMostPopularTable: catalog: 44305, numindb: 12
Update: records affected: 1



GetName: 44305 ISS DEB

Hit Count: updated at: Sun, 21 Jul 2019 21:06:24 GMT